Location: Borovka
(49.7741°N, 14.5280°E)
Time: 13:20:59
(UTC+00:00)

ESTCUBE 1 - Pass Details

Date: 21 March 2026
Orbit: 620 x 631 km, 97.7° (Epoch: 18 April)

Event Time Altitude Azimuth Distance (km) Brightness Sun altitude
Exits shadow 20:38:39 25° 263° (W) 1,273 ? -30.3°
Maximum altitude 20:38:49 25° 267° (W) 1,272 ? -30.4°
Drops below altitude 10° 20:42:28 10° 323° (NW) 2,020 ? -30.8°
Sets 20:45:01 0° 337° (NNW) 2,934 ? -31.1°
